Content
SEND FEEDBACK

Daily
Averages
Monthly
Summary
Canada

VANCOUVER, BRITISH COLUMBIA


Home > North America > Canada > British Columbia
Elevation: 7 feet     Latitude: 49 11N     Longitude: 123 10W

WEATHER
 
SELECT A DAY
Number of Records: 249,213;   Date Range: 5/15/97 - 4/23/14
 
SHARE

PRINT THIS DATA

[ ← Previous Day ]
WEATHER ALMANAC - APRIL 7, 2013
[ Next Day → ]
[ °C ]   °F
Weather ElementAverageHighLow
Temperature45.1 °F48.2 °F (2:15 pm)41 °F (4:55 am)
Dewpoint41.7 °F44.6 °F (2:55 pm)39.2 °F (6:15 pm)
Humidity87.8 %100 % (4:55 am)76 % (5:15 pm)
Barometer29.68 in29.84 in (11:55 pm)29.56 in (6:35 am)
Wind Speed5.7 mph15 mph (7:35 am)
Wind Gust17.3 mph (8:15 am)
Weather ElementAverage
Visibility7.9 mi
Wind DirectionSSE (151.7 °)

Weather ElementTotal
Precipitation---
Heating Degree Days20.4 (Base 65)
Averaged from 65 records on April 7, 2013
WEATHER CONDITIONS BREAKOUT
WIND DIRECTION BREAKOUT
WEATHER BY HOUR - APRIL 7, 2013
[ °C ]   °F
Local TimeTemperatureDewpointHumidityBarometerVisibilityWind DirectionWind SpeedGust SpeedPrecipitationEventsConditions
12:35 AM44.6 °F42.8 °F93 %29.75 in10.0 miENE (60°)5.8 mphOvercast
12:55 AM44.6 °F42.8 °F93 %29.74 in10.0 miEast (100°)3.5 mphOvercast
1:15 AM44.6 °F41.0 °F87 %29.73 in7.0 miENE (60°)6.9 mphRainLight Rain
1:35 AM44.6 °F41.0 °F87 %29.71 in8.0 miCalmRainLight Rain
1:55 AM44.6 °F41.0 °F87 %29.69 in8.0 miENE (70°)4.6 mphRainLight Rain
2:15 AM42.8 °F41.0 °F93 %29.68 in10.0 miENE (60°)3.5 mphOvercast
2:55 AM42.8 °F41.0 °F93 %29.66 in10.0 miENE (70°)3.5 mphOvercast
3:15 AM42.8 °F41.0 °F93 %29.65 in10.0 miEast (80°)3.5 mphRainLight Rain
3:35 AM42.8 °F41.0 °F93 %29.64 in5.0 miENE (70°)4.6 mphRainLight Rain
4:15 AM42.8 °F41.0 °F93 %29.62 in5.0 miENE (60°)3.5 mphRainLight Rain
4:35 AM42.8 °F41.0 °F93 %29.61 in5.0 miCalmRainLight Rain
4:55 AM41.0 °F41.0 °F100 %29.60 in5.0 miCalmRainLight Rain
5:15 AM42.8 °F41.0 °F93 %29.59 in6.0 miCalmRainLight Rain
5:35 AM42.8 °F41.0 °F93 %29.58 in7.0 miNorth (10°)5.8 mphRainLight Rain
5:55 AM42.8 °F41.0 °F93 %29.58 in6.0 miNorth (10°)6.9 mphRainLight Rain
6:15 AM42.8 °F41.0 °F93 %29.57 in7.0 miNorth (10°)5.8 mphRainLight Rain
6:35 AM42.8 °F41.0 °F93 %29.56 in5.0 miNorth (10°)5.8 mphRainRain
6:55 AM44.6 °F41.0 °F87 %29.56 in5.0 miNorth (10°)8.1 mphRainRain
7:15 AM44.6 °F41.0 °F87 %29.56 in5.0 miNorth (360°)6.9 mphRainRain
7:35 AM44.6 °F41.0 °F87 %29.56 in4.0 miNorth (350°)15.0 mphRainRain
7:55 AM44.6 °F41.0 °F87 %29.56 in4.0 miNNW (340°)13.8 mphRainRain
8:15 AM44.6 °F42.8 °F93 %29.56 in5.0 miNNW (330°)9.2 mph17.3 mphRainLight Rain
8:35 AM44.6 °F42.8 °F93 %29.56 in5.0 miNNW (330°)9.2 mphRainLight Rain
8:55 AM44.6 °F42.8 °F93 %29.57 in9.0 miNNW (330°)11.5 mph17.3 mphRainLight Rain
9:15 AM44.6 °F42.8 °F93 %29.58 in5.0 miNNW (330°)11.5 mph17.3 mphRainLight Rain
9:55 AM44.6 °F42.8 °F93 %29.59 in5.0 miNNW (330°)8.1 mphRainLight Rain
10:15 AM44.6 °F42.8 °F93 %29.60 in5.0 miNNW (330°)9.2 mphRainLight Rain
10:35 AM44.6 °F41.0 °F87 %29.62 in5.0 miWNW (300°)10.4 mphRainLight Rain
10:55 AM44.6 °F41.0 °F87 %29.63 in4.0 miNW (310°)6.9 mphRainLight Rain
11:15 AM44.6 °F41.0 °F87 %29.64 in5.0 miWNW (290°)6.9 mphRainLight Rain
11:35 AM44.6 °F41.0 °F87 %29.65 in5.0 miWNW (290°)6.9 mphRainLight Rain
11:55 AM44.6 °F41.0 °F87 %29.66 in5.0 miWNW (290°)4.6 mphRainLight Rain
12:15 PM44.6 °F42.8 °F93 %29.66 in5.0 miWSW (250°)3.5 mphRainLight Rain
12:55 PM46.4 °F42.8 °F87 %29.67 in7.0 miCalmRainLight Rain
1:15 PM46.4 °F41.0 °F81 %29.68 in7.0 miCalmRainLight Rain
1:35 PM46.4 °F42.8 °F87 %29.68 in10.0 miCalmMostly Cloudy
1:55 PM46.4 °F42.8 °F87 %29.69 in10.0 miCalmOvercast
2:15 PM48.2 °F42.8 °F82 %29.69 in10.0 miCalmMostly Cloudy
2:55 PM48.2 °F44.6 °F87 %29.70 in10.0 miSouth (180°)4.6 mphClear
3:15 PM48.2 °F44.6 °F87 %29.70 in10.0 miEast (90°)4.6 mphScattered Clouds
3:35 PM48.2 °F44.6 °F87 %29.70 in10.0 miSSW (200°)8.1 mphScattered Clouds
3:55 PM48.2 °F44.6 °F87 %29.70 in9.0 miSSW (200°)10.4 mphClear
4:15 PM48.2 °F44.6 °F87 %29.71 in7.0 miSouth (190°)9.2 mphRainLight Rain
4:35 PM48.2 °F44.6 °F87 %29.71 in10.0 miSouth (190°)10.4 mphClear
4:55 PM48.2 °F42.8 °F82 %29.72 in10.0 miSouth (190°)9.2 mphPartly Cloudy
5:15 PM48.2 °F41.0 °F76 %29.72 in10.0 miSouth (190°)10.4 mphClear
5:35 PM48.2 °F41.0 °F76 %29.73 in10.0 miSouth (170°)8.1 mphClear
5:55 PM46.4 °F41.0 °F81 %29.73 in10.0 miSouth (180°)8.1 mphScattered Clouds
6:15 PM46.4 °F39.2 °F76 %29.74 in10.0 miSouth (170°)5.8 mphMostly Cloudy
6:35 PM46.4 °F39.2 °F76 %29.74 in10.0 miSouth (180°)8.1 mphMostly Cloudy
7:15 PM46.4 °F39.2 °F76 %29.76 in10.0 miSSW (200°)8.1 mphOvercast
7:35 PM46.4 °F41.0 °F81 %29.76 in10.0 miSouth (190°)8.1 mphOvercast
7:55 PM46.4 °F41.0 °F81 %29.76 in10.0 miSouth (190°)5.8 mphOvercast
8:15 PM44.6 °F41.0 °F87 %29.76 in10.0 miSSW (200°)5.8 mphOvercast
8:35 PM44.6 °F41.0 °F87 %29.77 in10.0 miCalmPartly Cloudy
8:55 PM44.6 °F41.0 °F87 %29.78 in10.0 miSouth (190°)6.9 mphScattered Clouds
9:15 PM44.6 °F41.0 °F87 %29.79 in10.0 miSouth (180°)4.6 mphScattered Clouds
9:35 PM44.6 °F41.0 °F87 %29.80 in10.0 miSSW (200°)4.6 mphMostly Cloudy
9:55 PM44.6 °F41.0 °F87 %29.80 in10.0 miSouth (190°)3.5 mphMostly Cloudy
10:15 PM44.6 °F41.0 °F87 %29.81 in10.0 miCalmScattered Clouds
10:35 PM44.6 °F41.0 °F87 %29.81 in10.0 miSouth (190°)5.8 mphRainLight Rain
10:55 PM44.6 °F41.0 °F87 %29.82 in10.0 miSSW (200°)5.8 mphScattered Clouds
11:15 PM44.6 °F41.0 °F87 %29.83 in10.0 miSouth (190°)5.8 mphMostly Cloudy
11:35 PM44.6 °F42.8 °F93 %29.83 in10.0 miCalmMostly Cloudy
11:55 PM44.6 °F41.0 °F87 %29.84 in10.0 miSouth (170°)3.5 mphMostly Cloudy
Hourly data recorded from CZBB, located miles away from Vancouver, British Columbia







STORIES FROM OUR PARTNERS